STARLINK-35074, 65422

Orbit data source: Space-Track

STARLINK-35074, 65422 is a payload satellite owned by SpaceX/Seattle (US) in LEO that was launched on Sun, 31 Aug 2025 UTC via an FALCON 9 launch vehicle from the Air Force Eastern Test Range (AFETR). Payload-class satellites include a variety of spacecraft equipped with specific instruments for various scientific and technological missions. These include communications satellites like Starlink; space stations such as the ISS; scientific satellites like the Hubble; Earth observation satellites from companies like Planet Labs, Umbra, and HawkEye 360; GPS; miniature CubeSats for education and research; and military/defense satellites.

Loading next visibility...
Identifier
65422, 2025-192U
Orbit
LEO
Country
Flag of USUS
Related business
Manufacturer
SpaceX/Seattle
Mission
Operational Commercial Communications
Bus & Motor
STARLINK V2MO, Unknown motor
Mass
575 kg wet, ~530 kg dry
Launch date (UTC)
2025-08-31 (10 months ago)
Launch vehicle
FALCON 9
Launch site
Air Force Eastern Test Range (AFETR)
Object type
Payload
Rocket body
Debris
Shape & HBR
Box + 2 Pan, 17.7 m
Radar Cross Section
36.964 m², Large (>1 m²)

Expand to show TLE details & history
Last TLE update: 1 day ago

TLE from 1 day ago
0 STARLINK-35074
1 65422U 25192U   26170.58174845  .00021303  00000-0  72938-3 0  9997
2 65422  53.1608 119.1159 0001252  88.3384 271.7760 15.30196798 44989
Epoch: 2026-06-19T13:57Z
TLE epoch observation values (Epoch: 2026-06-19T13:57:43.066Z)
Latitude
-0.00001°
Longitude
1.87778°
Altitude
476.098 km
Speed
7.629 km/s
True Right ascension
07h 56m 27s
True Declination
0° 00' 00"
Sunlit
Object was in daylight at epoch
Visualization orbit readout
Latitude
Unknown
Longitude
Unknown
Altitude
Unknown
Speed
Unknown
Apparent Right ascension
Unknown
Apparent Declination
Unknown
Sunlit
N/A
Visualization observer readout
Local Sidereal Time
07:14:22
Azimuth
Unknown
Elevation
Unknown
Doppler factor
Unknown
Orbital elements
Apogee altitude
476.339 km
Perigee altitude
474.623 km
Semi-major axis
6,853.618 km
Eccentricity
0.00013
Inclination
53.1608°
RAAN
119.1159°
Arg. of periapsis
88.3384°
True anomaly
271.76166°
Mean anomaly
271.776°
Eccentric anomaly
271.76883°
Mean motion
3.82528 °/min
Orbital period
94.11 mins
BSTAR
0.00072938
Loading maneuver chart data...
Computing Atmospheric mass density...
Loading historical data...
Loading historical data...
Loading historical data...
Loading historical data...
Loading historical data...
Loading historical data...
Loading historical data...

Documentation

Showing up to 5 results
|